Location: Risskov
(56.1972°N, 10.2480°E)
Time: 23:19:21
(UTC+00:00)

Cosmos 2228 Rocket - Pass Details

Date: 05 July 2020
Orbit: 617 x 653 km, 82.5° (Epoch: 14 August)

Event Time Altitude Azimuth Distance (km) Brightness Sun altitude
Rises 22:48:17 0° 350° (N) 2,993 8.9 -10.8°
Reaches altitude 10° 22:50:38 10° 357° (N) 2,077 7.3 -10.8°
Maximum altitude 22:55:05 45° 70° (ENE) 892 4.0 -10.9°
Enters shadow 22:59:18 11° 143° (SE) 1,985 5.1 -11.0°
